{"data":{"norad_id":63675,"intl_designator":"2025-085M","name":"STARLINK-11655 [DTC]","alt_names":[],"object_type":"PAYLOAD","status":"ACTIVE","operator":null,"country":"US","launch_date":"2025-04-28","launch_site_code":"AFETR","launch_vehicle":null,"mission":null,"orbit_class":"UNKNOWN","rcs_meters":null,"size_class":null,"mass_kg":null,"dimensions":null,"purposes":["comms"],"wikipedia_slug":null,"has_3d_model":false,"image_url":null,"decayed_at":null,"tle_current":{"epoch":"2026-09-20T18:14:06.430560Z","epoch_age_seconds":130197,"freshness":"FRESH","line1":"1 63675U 25085M   26263.75979665  .00192870  00000+0  14705-2 0  9995","line2":"2 63675  43.0013 182.3869 0002063 286.2113  73.8527 15.70863886 80924","mean_motion":15.70863886,"eccentricity":0.0002063,"inclination_deg":43.0013,"raan_deg":182.3869,"arg_perigee_deg":286.2113,"mean_anomaly_deg":73.8527,"bstar":0.0014705,"rev_number":8092,"period_min":91.669304567614,"perigee_km":355.03745126506,"apogee_km":357.81613228555,"semimajor_km":6734.5637917753,"source":"CELESTRAK","updated_at":"2026-09-21T09:00:35.059301Z"}}}